Regional Weather Roundup
Issued by NWS

Home | Current Version | Previous Version | Text Only | Print | Product List | Glossary On
Versions: 1 2 3 4 5 6 7 8 9 10 11 12 13 14 15 16 17 18 19 20 21 22 23 24 25 26 27 28 29 30 31 32 33 34 35 36 37 38 39 40 41 42 43 44 45 46 47 48 49 50
000
ASUS44 KMEG 210410
RWRTN
TENNESSEE HOURLY STATE WEATHER ROUNDUP
NATIONAL WEATHER SERVICE MEMPHIS TN
1100 PM CDT FRI APR 20 2018

TNZ002-004-019-021-049-052-054-088>092-210500-
WEST TENNESSEE

CITY           SKY/WX    TMP DP  RH WIND       PRES   REMARKS
MEMPHIS INTL   FAIR      58  34  40 NE6       30.24S
NWS MEMPHIS      N/A     50 N/A N/A MISG        N/A
JACKSON        FAIR      54  35  48 E6        30.29R
DYERSBURG      FAIR      55  32  41 E5        30.29S
SOMERVILLE       N/A     52  37  58 CALM      30.24S
COVINGTON      CLEAR     54  36  50 E5        30.27S
UNION CITY     CLEAR     55  30  38 E3        30.29S
BOLIVAR        CLEAR     48  36  61 NE3       30.26R
PARIS          CLEAR     48  32  53 NE5       30.30S
HUNTINGDON     CLEAR     48  32  53 CALM      30.30R
LEXINGTON      CLEAR     52  30  43 NE6       30.28S
SELMER         CLEAR     54  30  40 E5        30.27R
SAVANNAH       CLEAR     48  39  71 CALM      30.27S
$$

TNZ008-025-027-028-033-062-065-066-210500-
NORTH MIDDLE TENNESSEE

CITY           SKY/WX    TMP DP  RH WIND       PRES   REMARKS
NASHVILLE      FAIR      51  32  48 NE7       30.31S
PORTLAND       CLEAR     52  30  43 E8        30.32S
CLARKSVILLE    FAIR      50  30  46 NE6       30.32R
SMYRNA         FAIR      51  29  42 N5        30.32S
COOKEVILLE     CLEAR     46  30  53 NE3       30.30S
LIVINGSTON     CLEAR     48  27  43 NE8       30.32S
GALLATIN       CLEAR     54  28  37 NE7       30.35R
CROSSVILLE     FAIR      48  23  37 N6        30.32S
ROCKWOOD       CLEAR     50  23  34 NE6       30.31S
$$

TNZ061-075-076-078-094-096-097-210500-
SOUTH MIDDLE TENNESSEE

CITY           SKY/WX    TMP DP  RH WIND       PRES   REMARKS
LEWISBURG      CLEAR     43  36  75 CALM      30.29R
FAYETTEVILLE   CLEAR     54  32  43 NE7       30.27S
TULLAHOMA      CLEAR     54  28  37 NE6       30.28S
WINCHESTER     CLEAR     48  36  61 CALM      30.28S
MCMINNVILLE    CLEAR     50  30  46 NE6       30.30S
COLUMBIA       CLEAR     48  39  71 CALM      30.28R
SHELBYVILLE    CLEAR     45  37  76 CALM      30.28F
$$

TNZ017-018-042-046-047-210500-
NORTHEAST TENNESSEE

CITY           SKY/WX    TMP DP  RH WIND       PRES   REMARKS
TRI CITIES     FAIR      44  26  49 CALM      30.34S
ELIZABETHTON   FAIR      41  30  65 CALM      30.35S
$$

TNZ012-013-036-069-073-074-210500-
CENTRAL EAST TENNESSEE

CITY           SKY/WX    TMP DP  RH WIND       PRES   REMARKS
KNOXVILLE      FAIR      54  34  46 N7        30.29S
OAK RIDGE      FAIR      51  31  46 CALM      30.32S
DOWNTOWN KNOXV CLEAR     45  41  87 CALM      30.32S
GATLINBURG     CLEAR     43  34  70 CALM      30.32R
MORRISTOWN     CLEAR     48  34  57 E3        30.32S
JACKSBORO      CLEAR     45  32  61 CALM      30.37R
$$

TNZ083-085-099-210500-
SOUTHEAST TENNESSEE

CITY           SKY/WX    TMP DP  RH WIND       PRES   REMARKS
CHATTANOOGA    FAIR      49  37  63 CALM      30.28F
DAYTON         CLEAR     45  41  87 CALM      30.28F
$$

SKY/WX REPORTED AS FAIR MEANS FEW OR NO CLOUDS BELOW
12 THOUSAND FEET.




USA.gov is the U.S. government's official web portal to all federal, state and local government web resources and services.